Location: Banska Bystrica
(48.7330°N, 19.1500°E)
Time: 21:59:14
(UTC+02:00)

ISS - Pass Details

Date: 27 March 2019
Orbit: 408 x 410 km, 51.6° (Epoch: 23 April)

Event Time Altitude Azimuth Distance (km) Brightness Sun altitude
Rises 18:32:39 0° 246° (WSW) 2,330 1.1 -5.2°
Reaches altitude 10° 18:34:44 10° 246° (WSW) 1,471 0.0 -5.5°
Maximum altitude 18:38:02 85° 161° (SSE) 415 -3.8 -6.0°
Drops below altitude 10° 18:41:21 10° 70° (ENE) 1,475 -1.5 -6.6°
Enters shadow 18:42:12 - 70° (ENE) 1,827 -1.0 -6.7°
